Location: *
(40.7190°N, 4.2480°W)
Time: 19:34:32
(UTC+00:00)

SJ-12 - Pass Details

Date: 18 February 2020
Orbit: 569 x 585 km, 97.7° (Epoch: 03 April)

Event Time Altitude Azimuth Distance (km) Brightness Sun altitude
Rises 05:59:34 0° 4° (N) 2,810 7.4 -13.6°
Reaches altitude 10° 06:01:49 10° 357° (N) 1,908 6.5 -13.2°
Maximum altitude 06:05:41 40° 288° (WNW) 868 4.3 -12.4°
Drops below altitude 10° 06:09:33 10° 218° (SW) 1,900 6.2 -11.7°
Sets 06:11:47 0° 211° (SSW) 2,796 7.2 -11.3°
